Estherville, IA

6:48 AM CDT on May 29, 2017 (GMT -0500)
Estherville Municipal

Weather History for KEST - December, 2013

Change the Weather History Date:

Thursday, December 5, 2013

  Actual Average Record
Temperature  
Mean Temperature 6 °F 22 °F  
Max Temperature 11 °F 31 °F 62 °F (2001)
Min Temperature 0 °F 14 °F -11 °F (2005)
Degree Days  
Heating Degree Days 59 43  
Month to date heating degree days 201 209  
Since 1 July heating degree days 1854 1928  
Cooling Degree Days 0 0  
Month to date cooling degree days 0 0  
Year to date cooling degree days 712 593  
Moisture  
Dew Point 0 °F    
Average Humidity 75    
Maximum Humidity 83    
Minimum Humidity 66    
Precipitation  
Precipitation 0.00 in 0.05 in 0.70 in (1953)
Month to date precipitation 0.06 0.25  
Sea Level Pressure  
Sea Level Pressure 30.17 in    
Wind  
Wind Speed 20 mph (WNW)    
Max Wind Speed 29 mph    
Max Gust Speed 35 mph    
Visibility 10 miles    
Events      
T = Trace of Precipitation, MM = Missing Value Source: NWS Daily Summary

Daily Weather History Graph

Daily Weather History Graph

Search for Another Location

Airport or City:

Trip Planner

Search our weather history database for the weather conditions in past years. The results will help you decide how hot, cold, wet, or windy it might be!

Date:

Astronomy

Dec. 05, 2013 Rise Set
Actual Time 7:36 AM CST 4:43 PM CST
Civil Twilight 7:04 AM CST 5:15 PM CST
Nautical Twilight 6:28 AM CST 5:51 PM CST
Astronomical Twilight 5:53 AM CST 6:25 PM CST
Moon 9:54 AM CST (12/5) 8:07 PM CST (12/5)
Length of Visible Light 10h 11m
Length of Day
9h 06m
Waxing Crescent, 11% of the Moon is Illuminated
Dec 5
Waxing Crescent
Dec 9
First Quarter
Dec 17
Full
Dec 25
Last Quarter
Jan 1
New

Hourly Weather History & Observations

Time (CST) Temp. Windchill Dew Point Humidity Pressure Visibility Wind Dir Wind Speed Gust Speed Precip Events Conditions
12:42 AM 9.0 °F -9.5 °F 3.9 °F 80% 29.88 in 10.0 mi WNW 18.4 mph 31.1 mph N/A   Mostly Cloudy
12:52 AM 9.0 °F -11.4 °F 3.9 °F 80% 29.95 in 10.0 mi WNW 23.0 mph 29.9 mph N/A   Mostly Cloudy
1:29 AM 9.0 °F -10.5 °F 3.9 °F 80% 29.90 in 10.0 mi West 20.7 mph - N/A   Scattered Clouds
1:52 AM 9.0 °F -10.5 °F 3.9 °F 80% 29.99 in 10.0 mi West 20.7 mph 27.6 mph N/A   Mostly Cloudy
2:52 AM 8.1 °F -13.8 °F 3.0 °F 80% 30.03 in 10.0 mi WNW 26.5 mph - N/A   Overcast
3:18 AM 8.1 °F -12.6 °F 1.9 °F 76% 29.98 in 10.0 mi WNW 23.0 mph 34.5 mph N/A   Scattered Clouds
3:52 AM 8.1 °F -12.6 °F 1.9 °F 76% 30.06 in 10.0 mi WNW 23.0 mph 32.2 mph N/A   Mostly Cloudy
4:23 AM 7.0 °F -13.1 °F 1.9 °F 80% 30.00 in 10.0 mi West 20.7 mph 28.8 mph N/A   Overcast
4:35 AM 7.0 °F -14.5 °F 1.0 °F 77% 30.00 in 10.0 mi WNW 24.2 mph 29.9 mph N/A   Mostly Cloudy
4:48 AM 6.8 °F -15.1 °F 1.4 °F 79% 30.01 in 10.0 mi WNW 25.3 mph 31.1 mph N/A   Scattered Clouds
4:52 AM 7.0 °F -14.0 °F 1.0 °F 77% 30.09 in 10.0 mi WNW 23.0 mph 31.1 mph N/A   Partly Cloudy
5:39 AM 6.1 °F -14.8 °F 1.0 °F 80% 30.03 in 10.0 mi West 21.9 mph 27.6 mph N/A   Mostly Cloudy
5:52 AM 6.1 °F -14.8 °F -0.0 °F 76% 30.11 in 10.0 mi West 21.9 mph 28.8 mph N/A   Mostly Cloudy
6:35 AM 5.0 °F -14.2 °F -0.9 °F 76% 30.05 in 10.0 mi West 17.3 mph 27.6 mph N/A   Scattered Clouds
6:47 AM 5.0 °F -15.2 °F -0.4 °F 78% 30.06 in 8.0 mi West 19.6 mph 26.5 mph N/A   Mostly Cloudy
6:52 AM 5.0 °F -15.2 °F -0.0 °F 80% 30.14 in 9.0 mi WNW 19.6 mph 29.9 mph N/A   Mostly Cloudy
7:02 AM 5.0 °F -14.7 °F -0.9 °F 76% 30.06 in 10.0 mi WNW 18.4 mph - N/A   Scattered Clouds
7:52 AM 3.9 °F -16.6 °F -2.0 °F 76% 30.16 in 10.0 mi West 19.6 mph - N/A   Partly Cloudy
8:52 AM 6.1 °F -15.7 °F -0.0 °F 76% 30.19 in 10.0 mi WNW 24.2 mph 28.8 mph N/A   Clear
9:52 AM 7.0 °F -14.5 °F -0.0 °F 73% 30.21 in 10.0 mi WNW 24.2 mph 29.9 mph N/A   Clear
10:52 AM 9.0 °F -11.4 °F 1.9 °F 73% 30.25 in 10.0 mi WNW 23.0 mph 29.9 mph N/A   Clear
11:52 AM 10.0 °F -9.5 °F 1.9 °F 70% 30.26 in 10.0 mi WNW 21.9 mph - N/A   Clear
12:52 PM 10.0 °F -9.1 °F 3.0 °F 73% 30.25 in 10.0 mi West 20.7 mph - N/A   Clear
1:52 PM 10.9 °F -7.9 °F 1.9 °F 67% 30.24 in 10.0 mi WNW 20.7 mph - N/A   Clear
2:52 PM 9.0 °F -9.5 °F 1.0 °F 70% 30.26 in 10.0 mi West 18.4 mph - N/A   Clear
3:52 PM 8.1 °F -10.7 °F -0.0 °F 70% 30.28 in 10.0 mi WNW 18.4 mph - N/A   Clear
4:52 PM 5.0 °F -13.6 °F -0.9 °F 76% 30.31 in 10.0 mi WNW 16.1 mph - N/A   Clear
5:52 PM 3.9 °F -16.1 °F -2.0 °F 76% 30.35 in 10.0 mi West 18.4 mph - N/A   Clear
6:52 PM 3.0 °F -13.3 °F -2.9 °F 76% 30.38 in 10.0 mi West 11.5 mph - N/A   Clear
7:52 PM 1.9 °F -16.9 °F -4.0 °F 76% 30.40 in 10.0 mi West 15.0 mph - N/A   Clear
8:52 PM 1.9 °F -15.5 °F -5.1 °F 72% 30.42 in 10.0 mi West 12.7 mph - N/A   Clear
9:52 PM 1.0 °F -16.6 °F -6.0 °F 72% 30.42 in 10.0 mi WNW 12.7 mph - N/A   Clear
10:52 PM -0.0 °F -20.7 °F -7.1 °F 72% 30.45 in 10.0 mi WNW 17.3 mph - N/A   Clear
11:52 PM -0.0 °F -20.7 °F -8.0 °F 69% 30.45 in 10.0 mi WNW 17.3 mph - N/A   Clear